Wind_Speed
38 37 36 35 35 34 34 33 32 31 31 30 29 29 29 30 30 30 30 31 31 32 33 33 33 33 34 34 34 34 33 34 34 33 33 32 31 31 30 30 31 31 32
39 39 38 37 36 36 35 35 34 34 33 32 31 31 31 32 31 31 32 32 33 33 34 34 34 35 35 35 36 35 35 35 35 35 35 34 33 32 32 32 32 33 34
41 40 39 38 38 37 37 37 36 35 35 34 34 34 34 34 34 34 34 34 34 34 35 35 35 36 36 36 36 36 36 36 37 37 36 35 34 33 33 33 33 34 34
41 41 40 39 39 39 38 38 38 37 37 37 36 36 36 36 36 36 36 36 36 36 36 37 37 37 38 38 38 38 38 39 39 38 37 37 36 35 35 35 35 35 35
42 42 41 40 40 39 39 39 39 39 39 38 38 38 38 38 38 39 39 39 38 39 39 39 39 40 40 40 40 40 41 41 40 40 39 38 38 37 36 36 36 35 36
44 43 42 41 41 41 40 40 40 40 40 40 40 39 40 41 41 41 41 41 41 41 41 41 41 42 42 42 42 42 43 43 42 42 41 40 40 39 38 38 37 36 36
44 44 43 42 42 42 41 41 42 42 42 43 43 43 43 43 43 44 44 44 43 43 43 44 44 45 45 45 45 45 45 45 44 43 42 42 41 40 39 38 37 37 38
43 43 43 43 43 42 42 43 43 43 43 44 45 45 45 45 44 45 45 45 45 45 46 46 46 46 47 48 48 47 47 47 46 45 44 43 42 40 39 39 38 39 39
43 43 42 43 43 43 43 44 44 44 45 46 46 47 46 46 46 46 45 46 47 47 47 47 47 48 48 48 47 47 46 47 46 45 45 44 43 41 40 39 39 40 40
42 42 43 43 43 43 43 44 44 45 45 46 46 47 47 48 48 47 46 46 46 47 48 48 48 48 49 49 49 49 49 48 47 46 45 45 44 42 41 41 41 41 41
42 42 42 42 42 43 44 44 44 46 46 46 47 47 47 47 48 48 48 47 47 48 49 50 49 49 50 49 49 50 49 47 46 46 45 45 44 43 42 43 43 41 41
41 41 40 41 43 44 45 45 45 46 46 46 47 47 48 48 48 49 49 49 49 49 50 51 50 50 50 51 50 49 49 47 46 45 44 43 43 43 43 43 43 42 41
38 39 40 40 41 43 44 45 45 45 46 47 46 47 48 48 49 51 51 50 50 50 50 51 50 50 51 52 51 49 47 46 45 43 42 42 43 42 42 41 42 41 40
39 39 41 40 39 41 43 44 44 45 45 47 48 49 50 49 50 51 50 50 50 50 50 50 49 50 51 51 50 48 46 44 43 42 42 42 42 41 40 40 40 38 37
37 37 39 41 40 40 41 42 43 44 46 48 48 48 48 48 49 49 50 51 51 51 50 49 50 49 48 47 45 44 43 41 41 42 41 40 40 41 40 39 37 36 36
35 37 38 40 41 41 41 42 44 45 47 48 47 47 47 48 48 49 50 51 51 51 50 49 49 47 46 45 43 42 41 40 40 40 40 39 39 40 39 38 36 35 35
37 38 39 40 41 41 41 43 44 45 45 45 46 47 48 49 50 50 50 49 48 48 48 47 46 44 42 42 41 41 41 40 39 39 39 39 39 38 38 37 35 35 34
36 37 38 39 40 41 42 42 42 44 46 46 47 48 50 50 50 51 49 48 48 48 48 46 45 43 41 40 39 40 40 39 39 38 37 37 38 37 36 35 34 34 33
33 35 36 38 39 40 41 43 44 45 46 47 48 49 50 50 51 48 47 48 47 47 46 45 43 42 41 40 39 39 38 38 37 36 35 35 36 36 35 34 34 33 31
32 33 34 36 38 40 41 43 45 46 47 47 47 48 48 48 46 45 45 46 45 44 43 42 41 41 40 38 38 36 36 35 35 35 34 35 35 34 34 33 33 31 30
30 31 32 34 36 39 40 42 44 45 44 44 45 46 47 46 46 45 45 45 43 42 42 41 41 40 39 38 37 35 35 34 34 34 34 34 34 33 32 32 31 30 29
29 30 31 33 36 38 39 40 42 42 42 41 41 42 44 45 45 45 45 44 43 43 42 42 41 39 38 38 36 34 34 33 34 34 34 33 32 32 31 30 30 29 28
29 31 33 35 36 37 37 38 39 40 40 40 41 41 40 41 42 43 41 40 40 40 41 41 40 38 37 35 35 34 33 32 32 33 33 31 30 30 30 29 29 28 27
28 30 32 34 35 35 35 36 37 38 38 38 39 39 39 39 40 40 40 39 38 37 37 38 37 36 36 35 33 32 32 32 31 30 30 29 28 29 29 28 27 27 26
27 29 30 32 33 33 34 35 35 35 35 36 36 37 37 38 39 39 39 39 37 36 35 33 33 33 34 33 33 33 32 31 30 30 30 29 28 28 28 28 28 26 26
28 29 30 30 31 32 32 33 34 34 34 34 35 35 36 36 37 37 37 36 36 35 35 34 33 32 32 32 31 31 30 30 30 30 30 29 28 28 28 28 27 26 25
Wind_Direction
248 250 252 254 255 257 259 260 262 263 265 268 270 271 272 274 275 277 278 280 281 281 282 283 285 286 289 290 291 293 294 295 296 297 298 300 301 302 302 303 305 307 307
247 249 252 254 255 257 258 259 262 262 264 266 268 270 271 273 275 276 277 279 281 281 282 283 284 286 287 289 290 291 292 293 295 296 296 297 299 299 299 300 302 304 305
246 249 252 253 254 255 257 259 262 263 264 265 267 268 270 272 273 274 276 278 280 281 281 282 282 284 286 287 288 288 290 291 292 294 295 295 296 297 296 297 299 300 302
247 248 251 253 254 255 257 259 261 263 265 266 267 268 270 271 273 274 275 277 278 279 279 280 281 282 284 285 286 286 288 289 290 291 292 293 295 295 295 295 297 298 300
246 248 250 253 255 256 256 258 260 263 265 266 267 269 270 272 273 274 275 277 278 278 278 279 280 282 283 284 284 284 285 287 287 288 288 289 291 292 292 293 294 296 298
246 249 251 253 255 256 258 259 261 263 264 265 267 269 271 273 273 273 275 277 278 278 278 279 279 281 282 283 284 283 284 285 284 285 285 286 288 289 290 291 292 294 297
246 248 251 253 255 257 258 259 260 262 265 267 268 269 271 273 274 274 275 276 276 276 278 279 279 281 282 283 283 282 282 282 281 282 283 284 286 287 287 289 291 292 294
245 248 252 254 254 257 259 260 261 262 264 267 269 270 271 272 274 274 274 275 276 277 278 279 279 281 283 283 282 281 281 281 281 281 281 283 285 285 285 287 289 290 292
245 248 251 253 255 256 259 261 262 264 266 268 270 272 274 274 274 274 273 274 275 277 278 279 281 281 282 281 281 281 281 281 281 281 281 282 282 282 283 284 287 289 291
245 249 251 254 257 259 261 263 264 266 268 269 272 274 276 276 275 274 274 276 277 278 279 280 280 281 281 280 280 280 280 280 280 279 280 281 281 281 281 283 285 288 290
245 248 251 252 256 259 261 264 265 268 270 271 272 274 276 277 277 277 277 277 278 279 280 281 280 280 280 279 280 280 279 279 278 278 279 280 279 279 279 281 283 286 288
247 248 251 254 257 260 263 265 266 269 270 272 272 274 276 277 278 278 278 279 279 280 280 280 279 280 280 279 280 280 278 277 276 276 277 277 276 276 279 281 282 284 286
249 250 253 257 259 261 263 265 267 269 271 272 273 275 276 277 277 278 279 280 281 281 280 278 278 280 281 280 279 278 277 276 275 275 275 275 275 275 277 280 282 283 284
248 251 253 258 263 265 265 266 267 269 271 272 273 274 276 278 278 279 279 280 281 281 280 279 280 281 282 281 279 277 276 274 273 272 273 274 274 274 277 279 282 282 283
253 255 257 259 263 266 265 266 269 271 273 275 276 276 276 277 278 279 280 281 281 281 280 279 280 281 281 280 278 276 273 271 271 271 272 274 275 275 276 278 280 281 281
259 260 261 262 263 266 267 268 271 273 275 275 277 276 277 277 278 279 280 280 281 280 280 279 281 281 280 278 276 274 272 271 271 270 271 273 274 275 277 278 279 279 281
262 263 264 265 266 268 270 271 273 274 275 277 277 276 276 277 278 279 280 280 280 280 281 280 280 280 278 275 274 272 271 270 269 268 269 270 271 273 274 276 277 279 281
265 266 267 267 269 271 272 274 274 275 275 276 276 275 275 277 278 278 278 277 278 278 279 279 278 277 277 274 272 272 270 268 268 267 266 266 268 270 273 275 276 279 281
272 272 271 270 272 273 273 275 276 277 278 277 275 273 275 276 277 277 277 276 276 276 277 277 275 274 274 274 271 272 270 267 265 265 265 265 267 270 273 273 274 276 279
278 277 274 273 274 275 276 278 279 280 281 280 278 276 277 278 278 277 276 275 275 275 273 273 273 271 270 271 271 271 268 265 264 265 266 266 268 270 271 271 273 276 276
280 278 276 277 279 279 280 280 280 281 284 284 282 280 279 280 279 279 278 276 274 273 272 271 269 269 267 268 269 267 267 267 266 266 267 268 269 269 269 271 273 273 273
282 279 278 280 281 281 282 283 284 284 284 284 283 283 283 282 282 282 281 277 275 273 271 267 266 266 265 266 268 267 268 268 267 267 268 269 269 268 268 268 269 269 270
288 285 282 281 281 282 283 284 285 286 285 284 284 285 285 284 283 283 280 277 275 272 268 266 264 265 265 266 267 267 269 270 269 269 269 267 267 266 265 265 266 266 267
295 292 289 288 286 285 285 288 289 289 288 287 286 287 287 287 286 283 279 276 274 272 268 264 263 263 263 265 266 267 268 269 267 267 267 266 265 263 262 261 264 265 265
303 300 297 294 292 290 289 289 290 290 290 291 291 290 288 287 285 281 278 276 273 270 265 263 261 263 264 264 264 266 265 265 263 263 263 264 264 264 262 262 264 264 263
308 307 305 301 298 296 294 292 292 291 293 293 293 293 291 289 287 281 277 274 273 271 267 265 263 265 266 264 263 262 261 261 261 261 261 262 263 261 261 262 264 262 261
Height
5814 5817 5820 5822 5824 5826 5827 5829 5830 5831 5831 5832 5832 5833 5833 5833 5833 5833 5832 5832 5831 5830 5829 5828 5828 5826 5825 5824 5822 5820 5819 5817 5815 5814 5812 5810 5808 5806 5804 5802 5800 5797 5795
5807 5810 5813 5815 5817 5819 5821 5822 5823 5824 5825 5825 5826 5826 5826 5826 5826 5826 5826 5825 5824 5823 5823 5822 5821 5819 5818 5817 5815 5814 5812 5810 5809 5807 5805 5803 5802 5800 5798 5795 5793 5791 5789
5799 5803 5805 5808 5809 5811 5813 5814 5816 5817 5818 5819 5819 5819 5819 5819 5819 5819 5819 5818 5817 5816 5815 5814 5813 5812 5811 5809 5808 5806 5805 5803 5801 5800 5798 5796 5794 5793 5790 5789 5787 5785 5782
5792 5795 5797 5800 5801 5803 5805 5807 5808 5810 5811 5811 5811 5811 5811 5811 5811 5811 5811 5810 5809 5809 5808 5806 5805 5804 5803 5801 5800 5798 5797 5795 5793 5792 5790 5788 5787 5785 5783 5781 5779 5777 5775
5783 5786 5789 5792 5793 5795 5797 5799 5800 5802 5803 5803 5803 5803 5804 5803 5803 5803 5802 5802 5801 5800 5799 5798 5797 5796 5794 5793 5791 5790 5788 5786 5785 5783 5781 5780 5778 5777 5775 5773 5771 5769 5768
5775 5778 5781 5783 5785 5787 5789 5791 5792 5793 5794 5794 5794 5794 5795 5795 5794 5794 5793 5792 5791 5790 5790 5788 5787 5786 5785 5783 5782 5780 5778 5777 5775 5774 5772 5771 5769 5768 5766 5765 5763 5761 5760
5767 5770 5773 5775 5777 5779 5781 5782 5783 5784 5784 5784 5784 5785 5786 5785 5785 5784 5783 5782 5781 5780 5779 5778 5777 5775 5774 5772 5771 5769 5767 5766 5765 5764 5762 5761 5760 5758 5757 5756 5754 5753 5751
5757 5761 5764 5766 5768 5770 5772 5773 5774 5774 5774 5774 5774 5774 5775 5777 5776 5774 5773 5772 5771 5769 5768 5767 5765 5764 5762 5760 5759 5757 5756 5754 5753 5753 5752 5751 5750 5749 5748 5746 5745 5744 5742
5749 5752 5755 5757 5759 5761 5763 5763 5764 5765 5765 5765 5764 5763 5763 5764 5765 5764 5762 5760 5759 5758 5757 5755 5753 5752 5750 5748 5747 5745 5744 5743 5742 5741 5741 5740 5739 5739 5738 5737 5736 5734 5733
5740 5743 5746 5748 5750 5752 5753 5754 5754 5754 5754 5754 5754 5753 5752 5751 5750 5751 5751 5749 5747 5745 5744 5742 5741 5739 5737 5736 5734 5733 5732 5731 5730 5730 5729 5729 5728 5728 5727 5727 5726 5724 5723
5731 5734 5736 5738 5740 5742 5743 5743 5744 5744 5743 5743 5743 5742 5740 5739 5737 5736 5737 5737 5735 5733 5731 5729 5728 5726 5724 5722 5721 5720 5719 5719 5718 5718 5718 5717 5717 5717 5716 5716 5715 5714 5713
5722 5724 5726 5728 5730 5732 5733 5733 5733 5733 5732 5731 5730 5729 5728 5727 5726 5723 5722 5722 5721 5721 5718 5716 5714 5712 5710 5709 5708 5707 5706 5706 5706 5706 5706 5705 5705 5705 5705 5705 5704 5704 5703
5712 5715 5717 5718 5720 5721 5722 5722 5722 5721 5721 5720 5719 5717 5716 5715 5713 5711 5708 5707 5706 5706 5704 5702 5701 5699 5697 5695 5694 5693 5693 5693 5693 5694 5694 5694 5694 5694 5694 5694 5694 5694 5693
5703 5705 5707 5709 5710 5710 5711 5711 5711 5710 5710 5709 5707 5706 5704 5702 5700 5697 5695 5693 5691 5691 5689 5688 5686 5684 5682 5681 5679 5679 5679 5680 5681 5681 5682 5683 5683 5683 5684 5684 5684 5684 5683
5694 5695 5697 5698 5699 5700 5700 5700 5700 5700 5699 5697 5695 5693 5691 5690 5687 5685 5682 5679 5677 5676 5676 5675 5673 5670 5668 5666 5666 5666 5667 5668 5669 5669 5670 5671 5672 5673 5674 5674 5674 5674 5674
5684 5685 5686 5687 5689 5689 5689 5689 5689 5688 5687 5685 5683 5681 5678 5677 5674 5672 5669 5667 5664 5661 5661 5661 5659 5657 5656 5654 5654 5655 5655 5656 5657 5658 5659 5660 5661 5662 5664 5665 5665 5665 5665
5674 5675 5676 5677 5678 5678 5678 5677 5677 5676 5674 5672 5669 5667 5666 5664 5662 5659 5656 5654 5651 5649 5648 5648 5646 5645 5644 5643 5643 5643 5644 5645 5645 5647 5648 5649 5651 5652 5654 5655 5656 5656 5656
5664 5665 5665 5666 5666 5666 5666 5665 5664 5663 5661 5659 5656 5654 5652 5650 5648 5645 5643 5641 5639 5637 5636 5635 5635 5634 5633 5633 5633 5633 5633 5634 5635 5636 5637 5639 5641 5643 5644 5645 5646 5647 5648
5654 5654 5654 5655 5655 5655 5654 5654 5652 5650 5648 5645 5642 5640 5638 5636 5634 5631 5629 5628 5626 5625 5624 5623 5622 5622 5622 5622 5623 5623 5623 5624 5625 5626 5628 5630 5632 5633 5635 5636 5637 5638 5639
5645 5645 5644 5644 5644 5643 5642 5641 5640 5637 5635 5631 5628 5626 5624 5621 5619 5617 5616 5615 5613 5612 5611 5611 5611 5611 5612 5612 5612 5613 5614 5615 5616 5617 5619 5620 5622 5624 5625 5627 5629 5630 5630
5636 5635 5634 5633 5632 5631 5631 5629 5627 5625 5622 5618 5615 5612 5610 5608 5606 5604 5603 5601 5600 5599 5599 5599 5600 5601 5601 5602 5603 5604 5605 5605 5606 5608 5610 5611 5613 5615 5616 5618 5620 5621 5622
5627 5625 5624 5623 5622 5621 5619 5617 5615 5612 5609 5607 5603 5600 5597 5595 5593 5591 5589 5588 5587 5587 5587 5588 5589 5590 5592 5593 5594 5594 5595 5596 5598 5600 5601 5602 5604 5605 5607 5609 5611 5612 5613
5617 5616 5614 5613 5612 5610 5608 5605 5603 5600 5598 5595 5592 5589 5586 5583 5580 5579 5577 5576 5575 5575 5576 5577 5578 5580 5582 5583 5584 5585 5586 5588 5589 5591 5592 5594 5595 5597 5598 5600 5602 5604 5605
5609 5607 5605 5602 5600 5598 5596 5594 5592 5589 5586 5583 5580 5577 5574 5572 5569 5567 5566 5565 5565 5565 5565 5566 5568 5570 5571 5573 5574 5576 5577 5579 5580 5582 5584 5585 5587 5588 5590 5592 5594 5595 5597
5602 5599 5595 5592 5590 5588 5586 5584 5581 5578 5576 5573 5569 5566 5563 5561 5559 5556 5555 5555 5555 5555 5555 5555 5557 5558 5561 5563 5565 5566 5568 5570 5572 5573 5575 5577 5578 5580 5582 5584 5586 5587 5589
5595 5591 5587 5584 5581 5579 5576 5573 5571 5569 5566 5563 5560 5556 5553 5551 5548 5545 5544 5544 5544 5544 5545 5546 5547 5548 5550 5552 5555 5557 5559 5561 5563 5565 5567 5569 5570 5572 5574 5576 5578 5580 5581